ABS-2A (MONGOLSAT-1)

Last updated on Oct. 23, 2020, 5:56 a.m. UTC

1 41588U 16038A   20296.87643368 -.00000099  00000-0  00000-0 0  9997
2 41588   0.0088 232.5096 0000484 200.8699 348.6286  1.00271594 16015
UTC
Height (km)
Latitude
Longitude
Inclination
Orbital Period
UTC large
Height (km)
Speed (km/s)
/
Latitude / Longitude
Inclination (degrees)
Orbital Period (minutes)
Azimuth
Elevation
Range (km)
Doppler Factor
iOS Compass Heading
iOS Angle

Next 30 passes for location: Hong Kong

Rise time Rise Azimuth (degrees) Set time Set Azimuth (degrees) Duration Max altitude (degrees)

No matching passes for this satellites